Regional Weather Roundup
Issued by NWS Upton, NY

Current Version | Previous Version | Text Only | Print | Product List | Glossary On
Versions: 1 2 3 4 5 6 7 8 9 10 11 12 13 14 15 16 17 18 19 20 21 22 23 24 25 26 27
000 ASUS41 KOKX 291705 RWROKX REGIONAL WEATHER ROUNDUP NATIONAL WEATHER SERVICE NEW YORK NY 100 PM EDT SUN MAY 29 2016 NOTE: "FAIR" INDICATES FEW OR NO CLOUDS BELOW 12,000 FEET WITH NO SIGNIFICANT WEATHER AND/OR OBSTRUCTIONS TO VISIBILITY. NYZ071-072-176-178-NJZ106-104-291800- NEW YORK CITY METRO AREA CITY SKY/WX TMP DP RH WIND PRES REMARKS CENTRAL PARK MOSUNNY 86 59 39 VRB7 30.14F LAGUARDIA APRT PTSUNNY 84 66 54 S14 30.11F KENNEDY INTL CLOUDY 76 63 64 S14 30.15F NEWARK/LIBERTY PTSUNNY 88 60 38 S10 30.10F BRNX BOT. GARD N/A 84 61 45 SE8 30.11F TETERBORO MOSUNNY 88 59 37 S14G22 30.09F $$ NYZ177-179-078>081-291800- LONG ISLAND NEW YORK CITY SKY/WX TMP DP RH WIND PRES REMARKS FARMINGDALE PTSUNNY 78 65 63 S10 30.14S ISLIP CLOUDY 78 60 53 S10 30.14S SHIRLEY MOSUNNY 77 64 64 S10 30.15F RIVERHEAD N/A 84 63 48 CALM 30.13F WESTHAMPTON SUNNY 74 63 68 SW9 30.17S EAST HAMPTON FAIR 76 62 62 S9 30.16S MONTAUK POINT N/A 72 63 73 S6 30.17F $$ NYZ052-065-067-291800- HUDSON VALLEY CITY SKY/WX TMP DP RH WIND PRES REMARKS WHITE PLAINS PTSUNNY 85 62 46 SE14G21 30.12F NEWBURGH MOSUNNY 86 70 58 SW9 30.10F HX 90 MONTGOMERY SUNNY 88 70 55 S10G18 30.07F HX 93 POUGHKEEPSIE PTSUNNY 89 67 47 S9G16 30.07F HX 92 ALBANY PTSUNNY 86 66 51 S7 30.05F $$ NJZ001-105-106-008-010-013-015-019>022-104-291800- NEW JERSEY CITY SKY/WX TMP DP RH WIND PRES REMARKS NEWARK/LIBERTY PTSUNNY 88 60 38 S10 30.10F TETERBORO MOSUNNY 88 59 37 S14G22 30.09F CALDWELL SUNNY 87 61 41 SW8 30.10F MORRISTOWN MOSUNNY 86 64 48 SW9 30.11F SOMERVILLE SUNNY 86 66 51 VRB5 30.09F SUSSEX SUNNY 85 65 51 VRB6 30.10F ANDOVER N/A 87 65 47 S9 30.11F TRENTON SUNNY 84 61 45 SW6 30.11F MILLVILLE MOSUNNY 81 67 62 SE8G18 30.14F ATLANTIC CITY SUNNY 80 68 66 SE9 30.14F WRIGHTSTOWN SUNNY 88 51 28 VRB5 30.09F TOMS RIVER SUNNY 88 55 33 S13 30.12F BELMAR SUNNY 83 62 49 SE8 30.14F $$ PAZ047>061-062-071-291800- EASTERN PENNSYLVANIA CITY SKY/WX TMP DP RH WIND PRES REMARKS PHILADELPHIA PTSUNNY 84 58 40 SW9 30.13F ALLENTOWN SUNNY 86 62 44 S9 30.11F SCRANTON MOSUNNY 87 66 49 SW12G17 30.09F $$ CTZ002-004>006-009-010-012-RIZ004-006-007-MAZ004-011-015-291800- SOUTHERN NEW ENGLAND IN CT CITY SKY/WX TMP DP RH WIND PRES REMARKS BRADLEY INTL PTSUNNY 87 67 51 VRB3 30.10F HX 90 HARTFORD SUNNY 89 67 47 S7 30.10F HX 92 DANBURY CLOUDY 86 65 49 SW14G21 30.12F WTRBRY/OXFORD PTSUNNY 84 64 51 S9G18 30.15F BRIDGEPORT CLOUDY 75 62 64 E9 30.13S MERIDEN SUNNY 87 63 44 S10 30.12S NEW HAVEN MOSUNNY 80 60 50 SE10 30.13F CHESTER FAIR 81 61 50 S8 30.15S GROTON MOSUNNY 75 63 66 SE10 30.15S WILLIMANTIC MOSUNNY 88 65 46 VRB5 30.13F HX 90 IN RI CITY SKY/WX TMP DP RH WIND PRES REMARKS PROVIDENCE PTSUNNY 76 63 64 VRB7 30.17F BLOCK ISLAND CLOUDY 71 63 75 SW14 30.18S WESTERLY CLOUDY 72 57 59 SE8 30.18R IN MA CITY SKY/WX TMP DP RH WIND PRES REMARKS BOSTON CLOUDY 60 54 80 NE10 30.22S WORCESTER CLOUDY 63 57 81 NE7 30.21S WESTFIELD CLOUDY 82 68 62 N8 30.12F PROVINCETOWN MOSUNNY 61 55 81 N9 30.20R NANTUCKET SUNNY 73 62 68 SW7 30.18R $$ ANZ330-335-338-340-345-350-353-355-291800- COASTAL MARINE OBSERVATIONS STATION/POSITION TIME SKY/WX TEMP WIND PRES VSBY WAVE AIR SEA DIR/SP/G HT/PER (UTC) (F) (DEG/KT/KT) (MB) (MI) (FT/S) NY HARB ENTRANCE 1550 62 59 180/ 10/ 12 1020.5 2/ 8 20S FIRE ISLAND 1550 61 61 190/ 8/ 10 1021.0 2/ 8 GREAT SOUTH BAY 1630 66 71 230/ 8/ 12 N/A 23 SSW MONTAUK P 1650 61 59 210/ 6/ 8 1021.1 2/ 8 15 E BARNEGAT LI 1622 62 N/A 3/ 8 HUDSON CANYON 1550 64 62 1021.9 3/ 8 KINGS POINT 1600 77 63 1019.9 EXECUTION ROCKS NOT AVBL CENTRAL LI SOUND 1615 66 80/ 6/ 8 N/A 0 EASTERN LI SOUND 1600 62 56 120/ 8/ 10 N/A ROBBINS REEF 1600 72 170/ 14/ 15 1019.6 $$ >>>>>>>>>>>>>>>>>>>>>>>>>>>> KEY <<<<<<<<<<<<<<<<<<<<<<<<<<< > < > SKY/WX - SKY CONDITION/PRESENT WEATHER < > TMP - TEMPERATURE IN FAHRENHEIT < > DP - DEWPOINT IN FAHRENHEIT < > RH - RELATIVE HUMIDITY IN PERCENT < > WIND - DIRECTION AND SPEED IN MPH < > PRES - MEAN SEA LEVEL PRESSURE IN INCHES OF HG < > WCI - WIND CHILL INDEX < > VSB - VISIBILITY IN MILES < > HX - HEAT INDEX < > TC - TEMPERATURE IN CELSIUS < > VRB - VARIABLE WIND DIRECTION < > < >>>>>>>>>>>>>>>>>>>>>>>>>>>> KEY <<<<<<<<<<<<<<<<<<<<<<<<<<<

USA.gov is the U.S. government's official web portal to all federal, state and local government web resources and services.